CST,Max TemperatureF,Mean TemperatureF,Min TemperatureF,Max Dew PointF,MeanDew PointF,Min DewpointF,Max Humidity, Mean Humidity, Min Humidity, Max Sea Level PressureIn, Mean Sea Level PressureIn, Min Sea Level PressureIn, Max VisibilityMiles, Mean VisibilityMiles, Min VisibilityMiles, Max Wind SpeedMPH, Mean Wind SpeedMPH, Max Gust SpeedMPH,PrecipitationIn, CloudCover, Events, WindDirDegrees
2011-11-1,66,51,36,38,33,28,79,53,32,30.05,29.90,29.81,10,10,10,23,12,32,0.00,0,,46
2011-11-2,48,39,30,37,31,24,87,63,48,30.32,30.23,30.08,10,10,7,30,15,38,0.03,6,Rain,359
2011-11-3,52,37,21,24,21,17,82,61,31,30.40,30.33,30.25,10,10,10,13,6,16,0.00,0,,341
2011-11-4,54,38,22,36,27,18,88,66,41,30.28,30.15,29.99,10,10,10,24,12,33,0.00,0,,142
2011-11-5,62,51,40,41,38,35,93,68,37,29.96,29.76,29.59,10,9,6,30,18,39,0.00,0,,153
2011-11-6,55,43,31,41,30,20,77,57,26,30.08,29.79,29.51,10,10,5,25,13,35,0.00,0,,241
2011-11-7,54,38,21,25,20,17,88,49,24,30.26,30.19,30.11,10,10,10,15,5,20,0.00,2,,40
2011-11-8,48,43,37,25,23,21,49,44,38,30.17,30.14,30.10,10,10,10,17,9,21,0.00,7,,24
2011-11-9,49,37,24,25,20,14,75,52,28,30.27,30.22,30.14,10,10,10,31,14,38,0.00,0,,316
2011-11-10,46,35,23,20,15,10,68,47,25,30.31,30.19,29.98,10,10,8,17,9,22,0.00,0,,301
2011-11-11,66,44,21,25,20,15,78,48,19,29.95,29.76,29.66,10,10,5,20,7,25,0.00,0,,165
2011-11-12,54,42,29,37,31,20,80,63,52,29.65,29.47,29.31,10,10,10,24,11,29,0.00,0,,159
2011-11-13,52,42,32,39,32,26,86,67,48,29.58,29.41,29.20,10,10,10,29,9,37,0.01,3,Rain,265
2011-11-14,57,45,32,30,25,19,76,51,26,29.65,29.59,29.49,10,10,10,21,9,30,0.00,1,,208
2011-11-15,51,37,23,29,21,11,69,51,33,30.11,29.82,29.54,10,10,10,28,10,33,0.00,0,,296
2011-11-16,44,30,15,16,9,3,67,43,19,30.34,30.24,30.12,10,10,10,25,10,33,0.00,0,,299
2011-11-17,50,30,10,23,13,2,67,48,29,30.30,30.10,29.80,10,10,10,26,11,36,0.00,0,,154
2011-11-18,56,42,28,30,26,21,75,57,38,29.77,29.69,29.60,10,10,8,26,12,35,0.00,0,,199
2011-11-19,34,27,20,27,22,15,92,78,63,30.26,29.87,29.65,10,8,2,26,16,32,0.01,7,Rain-Snow,357
2011-11-20,31,22,12,18,14,9,89,78,61,30.43,30.35,30.24,10,10,10,15,5,17,0.00,2,,20
2011-11-21,37,26,14,34,25,11,93,81,70,30.32,30.21,30.11,10,8,2,13,6,16,0.00,5,,129
2011-11-22,44,36,27,36,33,26,100,92,73,30.15,30.09,30.03,10,2,0,9,3,9,0.00,6,Fog,123
2011-11-23,48,36,24,36,28,22,100,90,63,30.19,30.12,30.06,10,3,0,14,9,17,0.00,3,Fog,126
2011-11-24,67,48,29,42,35,27,96,65,34,30.04,29.87,29.75,10,9,4,24,12,30,0.00,0,,167
2011-11-25,57,49,41,46,44,34,93,75,65,29.74,29.67,29.61,10,10,8,22,10,26,0.00,3,,195
2011-11-26,45,40,35,32,27,19,76,62,50,30.26,30.04,29.75,10,10,9,43,28,53,0.00,7,,332
2011-11-27,39,27,15,18,14,9,74,59,44,30.35,30.28,30.22,10,10,10,26,10,32,0.00,2,,328
2011-11-28,51,32,12,30,17,7,88,56,24,30.27,30.17,30.09,10,10,10,21,8,25,0.00,0,,108
2011-11-29,44,31,18,28,17,6,88,62,30,30.43,30.33,30.19,10,10,8,16,7,20,0.00,0,,333
2011-11-30,51,34,16,25,17,7,62,49,35,30.16,29.98,29.86,10,10,10,23,9,24,0.00,0,,135